Location: Great Malvern
(52.1167°N, 2.3167°W)
Time: 10:57:37
(UTC+00:00)

USA 229 DEB - Pass Details

Date: 18 September 2020
Orbit: 971 x 1241 km, 63.4° (Epoch: 14 October)

Event Time Altitude Azimuth Distance (km) Brightness Sun altitude
Rises 18:40:08 0° 238° (WSW) 3,710 7.4 -4.5°
Reaches altitude 10° 18:42:41 10° 242° (WSW) 2,788 6.8 -4.9°
Maximum altitude 18:49:12 64° 323° (NW) 1,160 4.2 -5.9°
Drops below altitude 10° 18:56:12 10° 45° (NE) 2,980 5.7 -6.9°
Sets 18:59:01 0° 49° (NE) 3,982 6.3 -7.4°
